• In Germany
  • List of Countries
  • For 7 days
  • Water Temperature
  • Satellite Maps
  • Weather Map
  • Weather Widgets
  • user-avatar
    Login

    Hourly Weather Amar

    Today, 27 July, Thursday

    Time Temperature Precipitation Wind Pressure Humidity
    00:00 +39°C° 0 mm 2 mps 745 mmHg 37%
    01:00 +38°C° 0 mm 2 mps 745 mmHg 39%
    02:00 +37°C° 0 mm 2 mps 745 mmHg 42%
    03:00 +37°C° 0 mm 2 mps 745 mmHg 45%
    04:00 +37°C° 0 mm 2 mps 745 mmHg 45%
    05:00 +37°C° 0 mm 3 mps 745 mmHg 45%
    06:00 +38°C° 0 mm 3 mps 745 mmHg 45%
    07:00 +40°C° 0 mm 3 mps 746 mmHg 39%
    08:00 +42°C° 0 mm 3 mps 746 mmHg 33%
    09:00 +44°C° 0 mm 3 mps 746 mmHg 26%
    10:00 +47°C° 0 mm 4 mps 746 mmHg 22%
    11:00 +48°C° 0 mm 4 mps 746 mmHg 17%
    12:00 +49°C° 0 mm 5 mps 746 mmHg 13%
    13:00 +49°C° 0 mm 6 mps 746 mmHg 13%
    14:00 +49°C° 0 mm 6 mps 745 mmHg 13%
    15:00 +49°C° 0 mm 7 mps 745 mmHg 14%
    16:00 +47°C° 0 mm 6 mps 745 mmHg 17%
    17:00 +45°C° 0 mm 6 mps 745 mmHg 20%
    18:00 +43°C° 0 mm 5 mps 745 mmHg 23%
    19:00 +42°C° 0 mm 4 mps 745 mmHg 27%
    20:00 +39°C° 0 mm 3 mps 745 mmHg 32%
    21:00 +38°C° 0 mm 2 mps 745 mmHg 37%
    22:00 +37°C° 0 mm 2 mps 745 mmHg 37%
    23:00 +37°C° 0 mm 2 mps 745 mmHg 37%

    Tomorrow, 28 July, Friday

    Time Temperature Precipitation Wind Pressure Humidity
    00:00 +37°C° 0 mm 2 mps 745 mmHg 37%
    01:00 +36°C° 0 mm 2 mps 745 mmHg 37%
    02:00 +35°C° 0 mm 2 mps 745 mmHg 36%
    03:00 +34°C° 0 mm 1 mps 745 mmHg 36%
    04:00 +34°C° 0 mm 1 mps 745 mmHg 35%
    05:00 +34°C° 0 mm 1 mps 746 mmHg 34%
    06:00 +34°C° 0 mm 1 mps 746 mmHg 32%
    07:00 +36°C° 0 mm 1 mps 746 mmHg 29%
    08:00 +39°C° 0 mm 1 mps 747 mmHg 25%
    09:00 +41°C° 0 mm 1 mps 747 mmHg 21%
    10:00 +42°C° 0 mm 2 mps 747 mmHg 19%
    11:00 +43°C° 0 mm 2 mps 747 mmHg 18%
    12:00 +45°C° 0 mm 3 mps 747 mmHg 16%
    13:00 +45°C° 0 mm 3 mps 746 mmHg 16%
    14:00 +47°C° 0 mm 4 mps 746 mmHg 16%
    15:00 +47°C° 0 mm 4 mps 746 mmHg 16%
    16:00 +45°C° 0 mm 5 mps 745 mmHg 21%
    17:00 +43°C° 0 mm 5 mps 745 mmHg 26%
    18:00 +42°C° 0 mm 5 mps 745 mmHg 31%
    19:00 +41°C° 0 mm 5 mps 746 mmHg 34%
    20:00 +40°C° 0 mm 4 mps 746 mmHg 38%
    21:00 +38°C° 0 mm 3 mps 747 mmHg 42%
    22:00 +38°C° 0 mm 3 mps 747 mmHg 41%
    23:00 +37°C° 0 mm 3 mps 747 mmHg 40%

    Day after tomorrow, 29 July, Saturday

    Time Temperature Precipitation Wind Pressure Humidity
    00:00 +37°C° 0 mm 3 mps 747 mmHg 39%
    01:00 +37°C° 0 mm 2 mps 746 mmHg 42%
    02:00 +36°C° 0 mm 2 mps 746 mmHg 45%
    03:00 +35°C° 0 mm 2 mps 746 mmHg 47%
    04:00 +35°C° 0 mm 1 mps 746 mmHg 45%
    05:00 +35°C° 0 mm 1 mps 747 mmHg 43%
    06:00 +35°C° 0 mm 1 mps 747 mmHg 40%
    07:00 +37°C° 0 mm 1 mps 747 mmHg 36%
    08:00 +39°C° 0 mm 1 mps 748 mmHg 31%
    09:00 +41°C° 0 mm 2 mps 748 mmHg 27%
    10:00 +43°C° 0 mm 2 mps 748 mmHg 24%
    11:00 +45°C° 0 mm 2 mps 747 mmHg 21%
    12:00 +46°C° 0 mm 3 mps 747 mmHg 18%
    13:00 +47°C° 0 mm 3 mps 747 mmHg 18%
    14:00 +47°C° 0 mm 3 mps 746 mmHg 17%
    15:00 +48°C° 0 mm 3 mps 746 mmHg 16%
    16:00 +47°C° 0 mm 3 mps 746 mmHg 18%
    17:00 +45°C° 0 mm 3 mps 746 mmHg 20%
    18:00 +44°C° 0 mm 3 mps 746 mmHg 21%
    19:00 +42°C° 0 mm 2 mps 746 mmHg 23%
    20:00 +41°C° 0 mm 2 mps 746 mmHg 24%
    21:00 +40°C° 0 mm 1 mps 746 mmHg 26%
    22:00 +40°C° 0 mm 1 mps 746 mmHg 25%
    23:00 +40°C° 0 mm 2 mps 746 mmHg 24%

    30 July, Sunday

    Time Temperature Precipitation Wind Pressure Humidity
    00:00 +40°C° 0 mm 2 mps 746 mmHg 23%
    01:00 +39°C° 0 mm 2 mps 745 mmHg 24%
    02:00 +39°C° 0 mm 2 mps 745 mmHg 25%
    03:00 +38°C° 0 mm 2 mps 745 mmHg 25%
    04:00 +38°C° 0 mm 2 mps 745 mmHg 24%
    05:00 +37°C° 0 mm 1 mps 745 mmHg 24%
    06:00 +37°C° 0 mm 1 mps 746 mmHg 23%
    07:00 +41°C° 0 mm 2 mps 746 mmHg 20%
    08:00 +43°C° 0 mm 2 mps 746 mmHg 17%
    09:00 +46°C° 0 mm 2 mps 747 mmHg 14%
    10:00 +47°C° 0 mm 2 mps 746 mmHg 13%
    11:00 +48°C° 0 mm 2 mps 746 mmHg 12%
    12:00 +49°C° 0 mm 2 mps 745 mmHg 10%
    13:00 +49°C° 0 mm 2 mps 745 mmHg 10%
    14:00 +50°C° 0 mm 3 mps 744 mmHg 10%
    15:00 +51°C° 0 mm 3 mps 744 mmHg 10%
    16:00 +50°C° 0 mm 3 mps 744 mmHg 11%
    17:00 +47°C° 0 mm 3 mps 744 mmHg 12%
    18:00 +46°C° 0 mm 3 mps 744 mmHg 13%
    19:00 +45°C° 0 mm 3 mps 745 mmHg 16%
    20:00 +42°C° 0 mm 2 mps 745 mmHg 18%
    21:00 +41°C° 0 mm 1 mps 745 mmHg 21%
    22:00 +40°C° 0 mm 2 mps 745 mmHg 22%
    23:00 +40°C° 0 mm 2 mps 745 mmHg 23%

    31 July, Monday

    Time Temperature Precipitation Wind Pressure Humidity
    00:00 +39°C° 0 mm 3 mps 745 mmHg 25%
    01:00 +39°C° 0 mm 3 mps 745 mmHg 29%
    02:00 +38°C° 0 mm 3 mps 744 mmHg 33%
    03:00 +37°C° 0 mm 3 mps 744 mmHg 37%
    04:00 +37°C° 0 mm 3 mps 745 mmHg 36%
    05:00 +38°C° 0 mm 2 mps 745 mmHg 35%
    06:00 +38°C° 0 mm 2 mps 746 mmHg 34%
    07:00 +40°C° 0 mm 2 mps 746 mmHg 30%
    08:00 +42°C° 0 mm 2 mps 746 mmHg 26%
    09:00 +45°C° 0 mm 2 mps 746 mmHg 21%
    10:00 +45°C° 0 mm 2 mps 746 mmHg 20%
    11:00 +46°C° 0 mm 2 mps 746 mmHg 19%
    12:00 +47°C° 0 mm 2 mps 745 mmHg 18%
    13:00 +47°C° 0 mm 3 mps 745 mmHg 17%
    14:00 +48°C° 0 mm 3 mps 744 mmHg 17%
    15:00 +49°C° 0 mm 4 mps 744 mmHg 17%
    16:00 +47°C° 0 mm 3 mps 744 mmHg 19%
    17:00 +46°C° 0 mm 3 mps 744 mmHg 20%
    18:00 +44°C° 0 mm 3 mps 745 mmHg 22%
    19:00 +42°C° 0 mm 2 mps 745 mmHg 24%
    20:00 +41°C° 0 mm 2 mps 745 mmHg 26%
    21:00 +40°C° 0 mm 1 mps 746 mmHg 27%
    22:00 +40°C° 0 mm 2 mps 745 mmHg 28%
    23:00 +39°C° 0 mm 2 mps 745 mmHg 28%

    1 August, Tuesday

    Time Temperature Precipitation Wind Pressure Humidity
    00:00 +39°C° 0 mm 3 mps 745 mmHg 29%
    01:00 +38°C° 0 mm 3 mps 745 mmHg 32%
    02:00 +38°C° 0 mm 3 mps 745 mmHg 35%
    03:00 +37°C° 0 mm 3 mps 745 mmHg 37%
    04:00 +37°C° 0 mm 2 mps 745 mmHg 38%
    05:00 +36°C° 0 mm 1 mps 745 mmHg 39%
    06:00 +36°C° 0 mm 1 mps 746 mmHg 40%
    07:00 +39°C° 0 mm 2 mps 746 mmHg 35%
    08:00 +41°C° 0 mm 2 mps 746 mmHg 31%
    09:00 +43°C° 0 mm 3 mps 746 mmHg 26%
    10:00 +45°C° 0 mm 4 mps 746 mmHg 24%
    11:00 +47°C° 0 mm 4 mps 746 mmHg 22%
    12:00 +48°C° 0 mm 4 mps 746 mmHg 19%
    13:00 +48°C° 0 mm 5 mps 745 mmHg 20%
    14:00 +48°C° 0 mm 5 mps 745 mmHg 21%
    15:00 +47°C° 0 mm 6 mps 745 mmHg 22%
    16:00 +46°C° 0 mm 5 mps 745 mmHg 27%
    17:00 +45°C° 0 mm 5 mps 745 mmHg 31%
    18:00 +42°C° 0 mm 4 mps 745 mmHg 35%
    19:00 +40°C° 0 mm 3 mps 745 mmHg 37%
    20:00 +40°C° 0 mm 3 mps 746 mmHg 39%
    21:00 +39°C° 0 mm 2 mps 746 mmHg 41%
    22:00 +38°C° 0 mm 3 mps 746 mmHg 41%
    23:00 +38°C° 0 mm 4 mps 746 mmHg 41%
    Show more